Location: Bay Ridge
(40.6340°N, 74.0146°W)
Time: 20:28:44
(UTC+00:00)

CZ-4B R/B - Pass Details

Date: 15 November 2019
Orbit: 486 x 653 km, 97.8° (Epoch: 12 December)

Event Time Altitude Azimuth Distance (km) Brightness Sun altitude
Rises 10:24:55 0° 357° (N) 2,565 6.1 -14.8°
Reaches altitude 10° 10:27:18 10° 342° (NNW) 1,681 5.0 -14.4°
Enters shadow 10:28:17 15° 329° (NNW) 1,386 4.5 -14.2°
